Location: Bauvin
(50.5165°N, 2.8976°E)
Time: 04:03:47
(UTC+00:00)

Daily predictions for brighter satellites

Satellite Brightness Start Highest point End
(mag) Time Altitude Azimuth Time Altitude Azimuth Time Altitude Azimuth
USA 215 3.9 03:20:42 10° E 03:25:43 51° ENE 03:25:43 51° ENE
NOSS 3-3 (A) 4.5 03:44:27 78° SE 03:44:27 78° SE 03:52:13 10° SE
NOSS 3-3 (C) 4.5 03:44:32 78° SE 03:44:32 78° SE 03:52:18 10° SE
Cosmos 1943 Rocket 2.8 04:06:38 51° SE 04:07:20 54° ESE 04:12:50 10° NE
CZ-2C R/B 3.7 04:05:01 10° SE 04:10:08 42° ENE 04:13:24 20° N
CENTAUR R/B 2.7 04:16:08 54° S 04:17:24 68° SE 04:24:32 10° NE
Cosmos 2297 3.9 04:21:07 56° S 04:22:12 69° ESE 04:27:55 10° NNE
NOSS 3-2 (A) 3.2 04:27:49 77° SW 04:28:18 90° SE 04:34:59 10° NE
Cosmos 2278 Rocket 3.6 04:33:50 25° N 04:33:50 25° N 04:36:43 10° NNE
Envisat 3.9 04:29:54 10° NNE 04:34:50 47° E 04:39:42 10° S
NOSS 3-2 (C) 3.7 04:33:35 36° SSW 04:35:55 64° SE 04:42:23 10° NE
SKYMED 2 4.0 04:32:32 10° SSE 04:36:48 60° ENE 04:37:12 57° NE
Cosmos 2098 Rocket 4.3 04:38:56 10° SSE 04:42:41 42° E 04:47:23 10° NNE
Meteor 2-3 Rocket 3.6 04:37:31 10° S 04:43:12 89° W 04:48:59 10° NNE
Cosmos 968 Rocket 3.6 04:42:38 19° SSW 04:46:22 72° ESE 04:51:30 10° NNE
Landsat 5 4.1 04:42:01 10° SSE 04:46:27 60° ENE 04:48:26 31° N
Cosmos 921 Rocket 3.2 04:50:35 64° S 04:50:35 64° S 04:54:25 10° SSE
DNEPR-1 R/B 3.8 04:53:14 60° NNW 04:54:06 81° NE 04:59:34 10° SE
Meteor 1-26 Rocket 4.2 04:53:51 39° NNW 04:56:01 64° W 05:01:43 10° S
Cosmos 1812 2.9 04:56:57 66° SSE 04:56:57 66° SSE 05:00:19 10° SSE
H-2A R/B 4.0 04:53:38 10° ESE 04:57:15 28° ENE 05:00:58 10° N
Cosmos 1151 Rocket 3.0 05:01:35 37° N 05:03:18 86° ENE 05:07:42 10° S
USA 238 DEB 3.5 05:00:10 28° SW 05:03:59 84° NW 05:10:58 10° NE
USA 238 3.5 05:00:14 27° SW 05:04:05 85° NW 05:11:04 10° NE
Cosmos 2344 3.5 05:03:34 35° WSW 05:06:54 63° NW 05:15:04 10° NE
Cosmos 1766 Rocket 4.0 05:03:08 10° S 05:07:24 60° E 05:11:41 10° NNE
USA 215 3.3 05:03:42 10° SE 05:10:11 65° SW 05:13:03 35° WNW
Kosmos-917 3.6 05:12:30 68° W 05:12:44 73° NW 05:18:05 10° NE
Meteor 1-31 Rocket 2.8 05:09:27 10° NNE 05:13:22 78° ESE 05:17:16 10° S
Cosmos 2279 Rocket 3.9 05:07:36 10° N 05:13:51 89° W 05:20:03 10° S
Cosmos 2297 Rocket 4.2 05:09:57 10° NNW 05:14:07 20° NE 05:18:17 10° E
Cosmos 1328 Rocket 3.5 05:12:41 18° N 05:16:00 84° E 05:20:21 10° S
IRAS Rocket 4.4 05:13:10 10° SSE 05:18:39 73° ENE 05:24:09 10° NNW
SJ-12 3.8 05:14:39 10° N 05:18:47 70° WNW 05:22:54 10° SSW
FALCON 9 DEB 3.0 05:21:07 68° SW 05:21:27 79° SSE 05:24:51 10° ENE
Cosmos 2369 Rocket 2.1 05:16:13 10° SSW 05:21:49 87° ESE 05:27:28 10° NNE
Cosmos 1862 3.2 05:19:43 10° S 05:23:39 84° E 05:27:38 10° NNE
COSMO-SKYMED 1 2.8 05:20:44 10° S 05:24:55 47° W 05:25:48 41° WNW
H-2A R/B 2.7 05:23:08 10° N 05:26:46 53° WNW 05:30:24 10° SSW
Cosmos 1634 Rocket 4.2 05:22:49 10° NNW 05:28:48 48° W 05:34:44 10° SSW
CZ-4B R/B 3.8 05:32:39 10° NNE 05:36:07 44° E 05:39:33 10° S
Lacrosse 4 Rocket 4.0 05:34:25 10° N 05:36:16 12° NNE 05:38:08 10° NE
Tsikada Rocket 4.4 05:33:27 10° SW 05:39:09 37° WNW 05:44:59 10° N
CZ-4B R/B 3.2 05:37:56 10° SE 05:40:53 30° ENE 05:43:48 10° N
YAOGAN 6 4.0 05:38:27 10° N 05:40:14 23° NNW 05:40:14 23° NNW
Cosmos 783 Rocket 4.4 05:37:36 14° NNW 05:42:07 87° WSW 05:47:19 10° SSE
Cosmos 1408 Rocket 3.9 05:38:31 10° S 05:42:46 67° E 05:47:04 10° NNE
Cosmos 1656 Rocket 3.5 05:40:04 10° SSW 05:45:29 85° WNW 05:50:59 10° NNE
CZ-4C R/B 3.2 05:42:53 10° S 05:45:51 38° W 05:46:01 38° W
Cosmos 1503 Rocket 4.1 05:40:42 10° SSW 05:45:59 82° ESE 05:51:21 10° NNE
DMSP B5D2-2 4.0 05:41:06 10° SSE 05:46:19 79° WSW 05:51:34 10° NNW
Cosmos 2227 Rocket 4.0 05:45:06 10° NNW 05:49:40 24° NE 05:54:12 10° E
CZ-2C R/B 3.2 05:45:32 10° SSW 05:50:31 35° W 05:54:54 13° NNW
Cosmos 1943 Rocket 2.8 05:48:15 20° W 05:51:21 34° NW 05:56:29 10° NNE
Cosmos 1486 Rocket 4.1 05:48:28 10° SW 05:53:41 57° WNW 05:58:55 10° NNE
Cosmos 1515 Rocket 3.4 05:51:56 10° NNW 05:56:18 70° W 06:00:37 10° S
SL-8 R/B 4.4 05:54:22 20° W 05:57:13 42° SSW 06:01:43 10° SE
Meteor 2-15 4.4 05:51:30 10° NNW 05:57:31 65° W 06:03:28 10° S
FALCON 9 DEB 2.9 05:56:51 34° WNW 05:57:49 54° N 06:00:40 10° ENE
Meteor 1-27 Rocket 3.7 05:53:38 10° NNW 05:59:17 85° W 06:05:00 10° S
COSMOS 2487 3.3 06:00:09 10° NNW 06:03:24 45° ENE 06:06:38 10° SE
Cosmos 773 Rocket 4.0 05:58:38 11° NNW 06:03:45 66° WSW 06:08:53 10° S
FALCON 9 DEB 3.0 06:03:16 28° WNW 06:04:26 49° N 06:07:13 10° ENE
FALCON 9 DEB 3.0 06:05:16 27° WNW 06:06:30 48° N 06:09:17 10° ENE
SJ 16-02 2.2 06:03:02 10° S 06:07:17 53° ESE 06:11:34 10° NNE
NOAA 11 4.1 06:02:11 10° N 06:07:38 67° WNW 06:13:04 10° SSW
CENTAUR R/B 3.1 06:03:21 14° W 06:08:34 44° NNW 06:15:50 10° NE
Alouette 2 Rocket 3.3 06:05:44 10° NNW 06:09:50 84° ENE 06:13:23 10° SSE
NOAA 12 4.1 06:07:31 10° NNE 06:12:50 88° WNW 06:18:05 10° SSW
Envisat 3.7 06:09:17 10° N 06:13:40 30° WNW 06:18:02 10° WSW
Meteor 2-19 Rocket 4.4 06:07:49 10° SSW 06:13:52 75° W 06:19:58 10° N
Cosmos 1340 Rocket 3.0 06:11:37 10° S 06:15:33 74° E 06:19:33 10° NNE
SL-27 R/B 2.8 06:14:04 13° NW 06:17:02 47° WSW 06:20:27 10° S
Cosmos 2278 Rocket 4.0 06:15:42 11° NW 06:17:29 12° NNW 06:19:49 10° N
Cosmos 1500 Rocket 3.6 06:14:32 10° S 06:19:00 89° ESE 06:23:31 10° N
Cosmos 1939 Rocket 2.7 06:15:27 10° NNE 06:19:26 82° WNW 06:23:20 10° SSW
NOSS 3-2 (A) 4.3 06:15:14 14° W 06:19:59 35° NNW 06:26:24 10° NE
FALCON 9 DEB 3.0 06:21:30 17° WNW 06:23:30 49° N 06:26:20 10° ENE
Cosmos 2098 Rocket 4.2 06:20:38 10° WSW 06:24:02 24° WNW 06:28:07 10° N
NOSS 3-2 (C) 4.0 06:21:37 10° W 06:27:13 42° NNW 06:33:47 10° NE
Okean O Rocket 3.8 06:25:52 10° NE 06:29:46 29° E 06:33:38 10° SSE
Cosmos 1805 Rocket 3.9 06:26:16 10° S 06:30:39 72° E 06:35:00 10° NNE
Sich 1 3.7 06:28:16 10° S 06:32:29 59° E 06:36:42 10° NNE
H-2A R/B 2.6 06:29:05 10° SSW 06:33:04 39° W 06:37:11 10° NNW
Cosmos 2026 Rocket 4.3 06:27:09 10° S 06:33:29 75° E 06:39:46 10° NNE
Meteor 1-25 Rocket 4.4 06:29:23 10° S 06:35:00 78° E 06:40:36 10° NNE
ATLAS 3B R/B 3.4 06:29:05 10° SSW 06:35:27 58° ESE 06:42:10 10° NE
ADEOS 4.1 06:33:04 10° N 06:37:48 36° WNW 06:42:31 10° SW
Cosmos 1174 3.9 06:35:48 10° SSW 06:38:43 55° ESE 06:41:50 10° NE
Cosmos 1500 3.9 06:35:23 10° S 06:39:07 58° E 06:42:52 10° NNE
Cosmos 158 Rocket 4.0 06:34:04 10° NNW 06:39:09 71° WSW 06:44:20 10° SSE
ATLAS 5 CENTAUR R/B 2.1 06:35:25 10° SSW 06:39:12 58° SE 06:43:31 10° NE
Cosmos 1515 4.0 06:41:07 10° NNW 06:44:47 47° W 06:48:27 10° SSW
Okean 1 3.3 06:41:49 10° NNW 06:45:48 84° W 06:49:45 10° S
CZ-2C R/B 3.4 06:41:46 10° N 06:46:14 39° WNW 06:50:51 10° SW
Cosmos 1354 Rocket 4.4 06:41:16 10° SW 06:46:18 43° WNW 06:51:23 10° NNE
Meteor 1-18 Rocket 4.4 06:46:03 10° NNW 06:51:59 87° ENE 06:57:46 10° SSE
USA 238 DEB 4.4 06:49:45 10° W 06:55:51 35° NNW 07:02:18 10° NE
USA 238 4.4 06:49:51 10° W 06:55:57 35° NNW 07:02:24 10° NE
